Weather History for Racine, WI

Change the Weather History Date:

Monday, February 4, 2013

  Actual Average Record
Temperature  
Mean Temperature 24 °F -  
Max Temperature 32 °F 30 °F 52 °F (1962)
Min Temperature 15 °F 13 °F -13 °F (1965)
Degree Days  
Heating Degree Days 42    
Moisture  
Dew Point 14 °F    
Average Humidity 74    
Maximum Humidity 93    
Minimum Humidity 31    
Precipitation  
Precipitation 0.06 in - - ()
Sea Level Pressure  
Sea Level Pressure 29.95 in    
Wind  
Wind Speed 6 mph (NNW)    
Max Wind Speed 17 mph    
Max Gust Speed 22 mph    
Visibility 4 miles    
Events Snow    
Averages and records for this station are not official NWS values.
T = Trace of Precipitation, MM = Missing Value Source: NWS Daily Summary

Daily Weather History Graph

Daily Weather History Graph

Search for Another Location

Airport:

Trip Planner

Search our weather history database for the weather conditions in past years. The results will help you decide how hot, cold, wet, or windy it might be!

Date:

Astronomy

Feb. 04, 2013 Rise Set
Actual Time 7:02 AM CST 5:08 PM CST
Civil Twilight 6:32 AM CST 5:38 PM CST
Nautical Twilight 5:58 AM CST 6:12 PM CST
Astronomical Twilight 5:25 AM CST 6:45 PM CST
Moon 1:39 AM CST (2/4) 11:30 AM CST (2/4)
Length of Visible Light 11h 06m
Length of Day
10h 06m
Last Quarter, 37% of the Moon is Illuminated
Feb 4
Last Quarter
Feb 10
New
Feb 17
First Quarter
Feb 25
Full
Mar 4
Last Quarter

Hourly Weather History & Observations

Time (CST) Temp. Windchill Dew Point Humidity Pressure Visibility Wind Dir Wind Speed Gust Speed Precip Events Conditions
12:10 AM 15.8 °F 7.2 °F 12.2 °F 86% 30.02 in 4.0 mi West 5.8 mph - 0.00 in Snow Light Snow
12:53 AM 16.0 °F 10.4 °F 12.0 °F 84% 30.05 in 2.5 mi West 3.5 mph - 0.00 in Snow Light Snow
1:27 AM 15.8 °F 10.2 °F 12.2 °F 86% 30.00 in 3.0 mi WNW 3.5 mph - 0.00 in Snow Light Snow
1:53 AM 16.0 °F - 12.9 °F 88% 30.03 in 2.5 mi Calm Calm - 0.00 in Snow Light Snow
2:06 AM 15.8 °F - 12.2 °F 86% 29.99 in 3.0 mi Calm Calm - 0.00 in Snow Light Snow
2:28 AM 15.8 °F 8.6 °F 12.2 °F 86% 29.98 in 2.5 mi NNE 4.6 mph - 0.00 in Snow Light Snow
2:41 AM 15.8 °F - 12.2 °F 86% 29.97 in 1.8 mi Calm Calm - 0.00 in Snow Light Snow
2:50 AM 15.8 °F - 12.2 °F 86% 29.96 in 2.5 mi Calm Calm - 0.00 in Snow Light Snow
2:53 AM 16.0 °F - 12.9 °F 88% 30.00 in 3.0 mi Calm Calm - 0.00 in Snow Light Snow
3:06 AM 15.8 °F - 12.2 °F 86% 29.96 in 2.5 mi Calm Calm - 0.01 in Snow Light Snow
3:18 AM 15.8 °F 10.2 °F 12.2 °F 86% 29.95 in 3.0 mi North 3.5 mph - 0.01 in Snow Light Snow
3:30 AM 15.8 °F - 12.2 °F 86% 29.95 in 2.5 mi Calm Calm - 0.01 in Snow Light Snow
4:53 AM 16.0 °F - 14.0 °F 92% 29.99 in 7.0 mi Calm Calm - 0.00 in Snow Light Snow
5:07 AM 17.6 °F 12.3 °F 14.0 °F 86% 29.95 in 2.0 mi WNW 3.5 mph - 0.01 in Snow Light Snow
5:24 AM 15.8 °F 10.2 °F 14.0 °F 93% 29.95 in 1.8 mi WNW 3.5 mph - 0.01 in Snow Light Snow
5:33 AM 15.8 °F 8.6 °F 14.0 °F 93% 29.95 in 2.0 mi WNW 4.6 mph - 0.02 in Snow Light Snow
5:42 AM 15.8 °F 8.6 °F 14.0 °F 93% 29.95 in 3.0 mi NW 4.6 mph - 0.02 in Snow Light Snow
5:53 AM 16.0 °F 10.4 °F 14.0 °F 92% 29.99 in 4.0 mi NW 3.5 mph - 0.02 in Snow Light Snow
6:53 AM 17.1 °F 11.7 °F 14.0 °F 88% 29.98 in 5.0 mi NNW 3.5 mph - 0.01 in Snow Light Snow
7:10 AM 17.6 °F 10.7 °F 14.0 °F 86% 29.94 in 2.0 mi NNW 4.6 mph - 0.00 in Snow Light Snow
7:26 AM 17.6 °F 9.3 °F 15.8 °F 93% 29.94 in 1.8 mi NNW 5.8 mph - 0.00 in Snow Light Snow
7:38 AM 17.6 °F 12.3 °F 15.8 °F 93% 29.93 in 2.0 mi North 3.5 mph - 0.01 in Snow Light Snow
7:48 AM 19.4 °F 14.3 °F 17.6 °F 93% 29.93 in 1.5 mi NNW 3.5 mph - 0.01 in Snow Light Snow
7:53 AM 19.0 °F - 17.1 °F 92% 29.96 in 1.2 mi Calm Calm - 0.01 in Snow Light Snow
8:28 AM 21.2 °F 10.9 °F 19.4 °F 93% 29.93 in 0.8 mi NE 9.2 mph - 0.01 in Snow Light Snow
8:36 AM 21.2 °F 10.1 °F 19.4 °F 93% 29.92 in 1.0 mi NE 10.4 mph - 0.02 in Snow Light Snow
8:53 AM 21.9 °F 11.7 °F 19.0 °F 89% 29.96 in 1.0 mi NNE 9.2 mph - 0.02 in Snow Light Snow
9:03 AM 21.2 °F 10.1 °F 19.4 °F 93% 29.92 in 2.0 mi NNE 10.4 mph - 0.00 in Snow Light Snow
9:21 AM 23.0 °F 12.4 °F 19.4 °F 86% 29.92 in 3.0 mi NNE 10.4 mph - 0.00 in Snow Light Snow
9:49 AM 23.0 °F 13.1 °F 19.4 °F 86% 29.92 in 3.0 mi NNE 9.2 mph - 0.00 in Snow Light Snow
9:53 AM 23.0 °F 13.1 °F 19.0 °F 85% 29.96 in 3.0 mi NNE 9.2 mph - 0.00 in Snow Light Snow
9:58 AM 23.0 °F 11.7 °F 19.4 °F 86% 29.92 in 2.5 mi NNE 11.5 mph - 0.00 in Snow Light Snow
10:19 AM 24.8 °F 14.0 °F 19.4 °F 80% 29.92 in 2.5 mi NNE 11.5 mph - 0.00 in Snow Light Snow
10:53 AM 24.1 °F 12.5 °F 19.0 °F 81% 29.95 in 2.0 mi NNE 12.7 mph - 0.00 in Snow Light Snow
11:15 AM 24.8 °F 12.9 °F 19.4 °F 80% 29.92 in 3.0 mi NNE 13.8 mph - 0.00 in Snow Light Snow
11:44 AM 24.8 °F 14.0 °F 17.6 °F 74% 29.91 in 2.5 mi NNE 11.5 mph - 0.00 in Snow Light Snow
11:53 AM 24.1 °F 12.5 °F 19.0 °F 81% 29.94 in 2.0 mi NNE 12.7 mph - 0.00 in Snow Light Snow
12:20 PM 24.8 °F 14.0 °F 19.4 °F 80% 29.91 in 3.0 mi North 11.5 mph - 0.00 in Snow Light Snow
12:53 PM 21.9 °F 8.2 °F 18.0 °F 85% 29.95 in 3.0 mi North 16.1 mph - 0.00 in Snow Light Snow
1:41 PM 32.0 °F 20.8 °F 17.6 °F 55% 29.91 in 3.0 mi North 17.3 mph - 0.00 in Snow Light Snow
1:53 PM 30.9 °F 19.8 °F 18.0 °F 59% 29.94 in 3.0 mi North 16.1 mph - 0.00 in Snow Light Snow
2:05 PM 30.2 °F 18.9 °F 17.6 °F 60% 29.92 in 4.0 mi North 16.1 mph - 0.00 in Snow Light Snow
2:45 PM 32.0 °F 21.6 °F 15.8 °F 51% 29.91 in 3.0 mi North 15.0 mph 20.7 mph 0.00 in Snow Light Snow
2:53 PM 30.9 °F 20.2 °F 16.0 °F 54% 29.94 in 4.0 mi North 15.0 mph 21.9 mph 0.00 in Snow Light Snow
3:02 PM 28.4 °F 18.0 °F 15.8 °F 59% 29.91 in 3.0 mi North 12.7 mph - 0.00 in Snow Light Snow
3:08 PM 30.2 °F 19.8 °F 15.8 °F 55% 29.91 in 3.0 mi North 13.8 mph - 0.00 in Snow Light Snow
3:22 PM 30.2 °F 19.3 °F 15.8 °F 55% 29.91 in 5.0 mi North 15.0 mph - 0.00 in Snow Light Snow
3:37 PM 30.2 °F 19.8 °F 15.8 °F 55% 29.90 in 7.0 mi North 13.8 mph - 0.00 in   Overcast
3:53 PM 30.9 °F 19.4 °F 15.1 °F 52% 29.94 in 8.0 mi North 17.3 mph 21.9 mph 0.00 in   Overcast
4:53 PM 32.0 °F 23.6 °F 12.9 °F 45% 29.95 in 6.0 mi NNW 10.4 mph - 0.00 in Snow Light Snow
5:04 PM 30.2 °F 22.6 °F 12.2 °F 47% 29.93 in 4.0 mi NNW 8.1 mph - 0.00 in Snow Light Snow
5:53 PM 30.0 °F 22.4 °F 10.9 °F 45% 29.98 in 9.0 mi NNW 8.1 mph - 0.00 in   Overcast
6:53 PM 28.0 °F 22.8 °F 10.0 °F 47% 29.98 in 10.0 mi NNW 4.6 mph - 0.00 in   Partly Cloudy
7:53 PM 30.0 °F 23.2 °F 8.1 °F 40% 29.99 in 10.0 mi WNW 6.9 mph - N/A   Clear
8:53 PM 26.1 °F 18.4 °F 3.9 °F 39% 30.01 in 10.0 mi NW 6.9 mph - N/A   Mostly Cloudy
9:53 PM 28.9 °F 23.9 °F 1.9 °F 32% 30.00 in 10.0 mi NW 4.6 mph - N/A   Clear
10:53 PM 28.0 °F 22.8 °F 1.0 °F 31% 29.98 in 10.0 mi WNW 4.6 mph - N/A   Clear
11:53 PM 27.0 °F 19.5 °F -0.0 °F 31% 29.99 in 10.0 mi West 6.9 mph - N/A   Clear